EW0611 Weather Reports


time (UTC)temp
C
wind
direction
speed
KPH
gust
KPH
rain 1hr
cm
rain 24hr
cm
rain mn
cm
humidity
%
barometer
mb
20260508010517 12 0.0 0.0 0.00 2.03 2.03 91 1012.3
20260508005516 12 0.0 0.0 0.00 2.03 2.03 91 1012.1
20260508004516 12 0.0 0.0 0.00 2.03 2.03 91 1012.0
20260508003516 12 0.0 0.0 0.00 2.03 2.03 91 1012.0
20260508002516 12 0.0 0.0 0.00 2.03 2.03 91 1011.8
20260508001557 12 0.0 1.6 0.00 2.03 2.03 91 1011.7
20260508000516 12 0.0 1.6 0.00 2.03 2.03 91 1011.7
20260507235536 12 0.0 0.0 0.00 2.03 2.03 91 1011.7
20260507234516 12 0.0 0.0 0.00 2.03 2.03 91 1011.6
20260507233557 12 0.0 1.6 0.00 2.03 2.03 91 1011.3
20260507232516 12 0.0 1.6 0.00 2.03 2.03 91 1011.1
20260507231516 12 0.0 1.6 0.00 2.03 2.03 91 1011.0
20260507230516 12 0.0 1.6 0.00 2.03 2.03 91 1010.7
20260507225516 12 0.0 1.6 0.00 2.03 2.03 91 1010.4
20260507224516 12 0.0 1.6 0.00 2.03 2.03 91 1010.5
20260507223516 12 0.0 1.6 0.00 2.03 2.03 91 1010.9
20260507222516 12 0.0 3.2 0.00 2.03 2.03 91 1010.9
20260507221516 12 0.0 1.6 0.00 2.03 2.03 91 1011.1
20260507220517 12 0.0 3.2 0.00 2.03 2.03 91 1011.1
20260507215516 12 0.0 4.8 0.00 2.03 2.03 91 1010.8
20260507214516 12 0.0 3.2 0.00 2.03 2.03 91 1010.8
20260507213516 12 0.0 1.6 0.00 2.03 2.03 91 1010.7
20260507212516 13 0.0 1.6 0.00 2.03 2.03 91 1010.7
20260507211557 13 0.0 3.2 0.00 2.03 2.03 91 1010.6
20260507210516 13 0.0 4.8 0.00 2.03 2.03 91 1010.6
20260507205516 13 0.0 1.6 0.00 2.03 2.03 91 1010.6
20260507204515 13 0.0 3.2 0.00 2.03 2.03 91 1010.3
20260507203516 13 0.0 4.8 0.00 2.03 2.03 91 1010.2
20260507202515 13 0.0 1.6 0.00 2.03 2.03 91 1010.2
20260507201536 13 0.0 1.6 0.00 2.03 2.03 91 1010.3
20260507200516 13 0.0 3.2 0.00 2.03 2.03 91 1010.5
20260507195516 13 0.0 0.0 0.00 2.03 2.03 91 1010.4
20260507194515 12 0.0 1.6 0.00 2.03 2.03 91 1010.5
20260507193536 12 0.0 4.8 0.00 2.03 2.03 91 1010.4
20260507192516 13 0.0 4.8 0.00 2.06 2.03 91 1010.6
20260507191515 13 0.0 1.6 0.00 2.06 2.03 91 1010.6
20260507190515 13 270 1.6 6.4 0.00 2.06 2.03 91 1010.5
20260507185515 13 0.0 3.2 0.00 2.06 2.03 91 1009.9
20260507184515 13 0.0 4.8 0.00 2.06 2.03 91 1010.0
20260507183556 13 270 1.6 4.8 0.00 2.06 2.03 90 1009.8
20260507182516 13 0.0 3.2 0.00 2.06 2.03 90 1009.7
20260507181515 13 248 1.6 3.2 0.00 2.06 2.03 91 1009.9
20260507180515 13 270 1.6 4.8 0.00 2.06 2.03 91 1010.0
20260507175516 13 225 1.6 3.2 0.03 2.06 2.03 91 1009.8
20260507174515 13 0.0 6.4 0.05 2.06 2.03 91 1010.7
20260507173515 14 0.0 4.8 0.08 2.06 2.03 91 1010.3
20260507172515 14 270 1.6 4.8 0.08 2.06 2.03 91 1009.9
20260507171516 14 0.0 3.2 0.08 2.06 2.03 91 1009.6
20260507170535 15 0.0 3.2 0.08 2.06 2.03 91 1009.4
20260507165515 15 0.0 3.2 0.08 2.03 2.01 91 1009.9
20260507164515 15 293 1.6 8.0 0.08 2.01 1.98 91 1009.6
20260507163515 15 203 1.6 6.4 0.10 1.98 1.96 92 1009.8
20260507162516 16 180 1.6 6.4 0.15 1.98 1.96 92 1010.7
20260507161536 17 0.0 3.2 0.15 1.98 1.96 92 1010.6
20260507160515 18 45 1.6 6.4 0.15 1.98 1.96 90 1010.5
20260507155515 19 0.0 1.6 0.15 1.96 1.93 89 1010.3
20260507154516 18 0.0 0.0 0.20 1.93 1.91 89 1010.1
20260507153515 19 0.0 1.6 0.18 1.88 1.85 89 1010.0
20260507152516 19 0.0 0.0 0.18 1.83 1.80 89 1010.3
20260507151515 19 0.0 0.0 0.20 1.83 1.80 89 1010.1
20260507150515 19 0.0 0.0 0.20 1.83 1.80 89 1010.1
20260507145515 19 0.0 1.6 0.20 1.80 1.78 89 1010.2
20260507144536 19 0.0 0.0 0.15 1.73 1.70 89 1010.1
20260507143535 19 0.0 1.6 0.15 1.70 1.68 89 1010.1
20260507142535 19 0.0 1.6 0.10 1.65 1.63 89 1010.3
20260507141516 19 0.0 1.6 0.10 1.63 1.60 89 1010.3
20260507140515 19 0.0 1.6 0.10 1.63 1.60 89 1010.4
20260507135515 18 0.0 1.6 0.08 1.60 1.57 89 1010.6
20260507134516 18 0.0 1.6 0.05 1.57 1.55 89 1010.6
20260507133515 18 0.0 1.6 0.03 1.55 1.52 89 1010.7
20260507132515 18 0.0 0.0 0.03 1.55 1.52 89 1010.6
20260507131516 18 0.0 0.0 0.00 1.52 1.50 89 1010.5
20260507130516 18 0.0 0.0 0.00 1.52 1.50 89 1010.4
20260507125515 18 0.0 0.0 0.03 1.52 1.50 89 1010.5
20260507124515 18 0.0 0.0 0.15 1.52 1.50 89 1010.6
20260507123515 18 0.0 1.6 0.20 1.52 1.50 89 1010.6
20260507122515 18 0.0 1.6 0.33 1.52 1.50 89 1010.5
20260507121517 18 0.0 1.6 0.41 1.52 1.50 89 1010.6
20260507120537 18 0.0 0.0 0.79 1.52 1.50 89 1010.9
20260507115517 18 0.0 1.6 0.89 1.50 1.47 89 1010.6
20260507114517 18 0.0 0.0 0.89 1.37 1.35 89 1011.2
20260507113517 18 0.0 1.6 1.02 1.32 1.30 89 1011.2
20260507112517 18 0.0 1.6 0.91 1.19 1.17 89 1011.1
20260507111558 18 0.0 0.0 0.84 1.12 1.09 89 1011.1
20260507110517 18 0.0 0.0 0.46 0.74 0.71 89 1011.1
20260507105517 18 0.0 0.0 0.33 0.61 0.58 89 1010.7
20260507104538 18 0.0 0.0 0.20 0.48 0.46 89 1010.7
20260507103516 18 0.0 0.0 0.03 0.30 0.30 89 1010.9
20260507102517 18 0.0 0.0 0.00 0.28 0.25 89 1010.7
20260507101517 18 0.0 0.0 0.00 0.28 0.25 89 1010.5
20260507100517 18 0.0 0.0 0.00 0.28 0.25 89 1010.7
20260507095639 18 0.0 0.0 0.00 0.28 0.25 89 1010.7
20260507094517 18 0.0 0.0 0.00 0.28 0.25 89 1010.8
20260507093517 18 0.0 0.0 0.03 0.28 0.25 89 1010.6
20260507092517 18 0.0 0.0 0.05 0.28 0.25 89 1010.8
20260507091518 18 0.0 0.0 0.05 0.28 0.25 89 1010.7
20260507090517 18 0.0 0.0 0.05 0.28 0.25 89 1010.8
20260507085517 18 0.0 0.0 0.05 0.28 0.25 89 1010.9
20260507084517 18 0.0 1.6 0.05 0.28 0.25 89 1010.8
20260507083517 18 0.0 1.6 0.03 0.25 0.23 89 1011.0
20260507082516 18 0.0 0.0 0.00 0.23 0.20 89 1011.2
20260507081537 18 0.0 1.6 0.00 0.23 0.20 89 1011.0
20260507080516 18 0.0 0.0 0.00 0.23 0.20 89 1011.0
20260507075517 18 0.0 1.6 0.00 0.23 0.20 89 1011.3
20260507074516 18 0.0 0.0 0.00 0.23 0.20 89 1011.4
20260507073517 18 0.0 0.0 0.00 0.23 0.20 89 1011.5
20260507072517 18 0.0 0.0 0.00 0.23 0.20 89 1011.5
20260507071516 18 0.0 1.6 0.00 0.23 0.20 89 1011.5
20260507070516 18 0.0 0.0 0.00 0.23 0.20 89 1011.8
20260507065517 18 0.0 1.6 0.00 0.23 0.20 90 1011.8
20260507064517 18 0.0 0.0 0.00 0.23 0.20 90 1012.3
20260507063516 18 0.0 1.6 0.00 0.23 0.20 90 1012.3
20260507062537 18 0.0 1.6 0.05 0.23 0.20 90 1012.3
20260507061516 18 0.0 1.6 0.08 0.23 0.20 90 1012.1
20260507060517 18 0.0 0.0 0.08 0.23 0.20 90 1012.3
20260507055536 18 0.0 1.6 0.08 0.23 0.20 90 1012.1
20260507054516 18 0.0 1.6 0.15 0.23 0.20 90 1012.2
20260507053516 18 0.0 1.6 0.18 0.23 0.20 90 1012.2
20260507052517 18 0.0 1.6 0.13 0.18 0.15 90 1012.2
20260507051517 18 0.0 0.0 0.10 0.15 0.13 90 1012.8
20260507050556 18 0.0 1.6 0.10 0.15 0.13 90 1012.4
20260507045516 18 23 1.6 3.2 0.13 0.15 0.13 90 1012.8
20260507044516 18 270 1.6 6.4 0.05 0.08 0.05 90 1012.7
20260507043517 19 0.0 1.6 0.03 0.05 0.03 90 1013.4
20260507042516 19 0.0 3.2 0.03 0.05 0.03 90 1014.0
20260507041516 19 0.0 1.6 0.03 0.05 0.03 91 1014.0
20260507040516 19 0.0 0.0 0.03 0.05 0.03 91 1013.6
20260507035516 19 0.0 0.0 0.00 0.03 0.03 91 1013.1
20260507034516 19 0.0 0.0 0.00 0.03 0.03 91 1012.6
20260507033516 20 0.0 1.6 0.00 0.03 0.03 91 1012.9
20260507032516 20 0.0 0.0 0.00 0.03 0.03 90 1013.1
20260507031557 20 0.0 0.0 0.00 0.03 0.03 90 1013.0
20260507030536 20 0.0 0.0 0.00 0.03 0.03 90 1012.8
20260507025516 20 0.0 0.0 0.00 0.03 0.03 90 1012.8
20260507024516 20 0.0 0.0 0.00 0.03 0.03 90 1012.5
20260507023536 20 0.0 1.6 0.00 0.03 0.03 90 1012.5
20260507022516 20 0.0 0.0 0.00 0.03 0.03 89 1012.4
20260507021517 20 0.0 0.0 0.00 0.03 0.03 89 1012.1
20260507020516 20 0.0 0.0 0.00 0.03 0.03 89 1012.4
20260507015516 20 0.0 0.0 0.00 0.03 0.03 88 1012.5
20260507014516 20 0.0 0.0 0.00 0.03 0.03 89 1012.5
20260507013516 20 0.0 1.6 0.00 0.03 0.03 88 1012.2
20260507012516 20 0.0 0.0 0.00 0.03 0.03 88 1012.4
20260507011516 20 0.0 0.0 0.00 0.03 0.03 88 1012.3